Flag for Australia Weather past 2 weeks in Mildura, Victoria, Australia

Now
62 °F

Refreshingly cool.


Feels Like: 62 °F
Forecast: 48 / 65 °F
Wind: 17 mph from West

Location: Mildura Airport

Current Time: May 5, 2015 at 6:24:08 PM

Latest Report: May 5, 2015 at 5:00 PM


Visibility: N/A

Pressure: 29.86 "Hg

Humidity: 34%

Dew point: 33 °F

Location of MilduraLocation

Historic Weather in Mildura — Graph

°F

Mildura temperature yesterday

Maximum temperature yesterday: 76 °F (at 3:00 PM)
Minimum temperature yesterday: 47 °F (at 6:00 AM)
Average temperature yesterday: 61 °F

Past Weeks' High & Low Weather Summary

 TemperatureHumidityPressure
High76 °F (May 4, 3:00 PM)96% (Apr 25, 2:00 AM)30.50 "Hg (Apr 25, 2:00 AM)
Low43 °F (Apr 21, 6:00 AM)26% (May 2, 4:00 PM)29.67 "Hg (May 5, 3:00 AM)
Average58 °F66%30.12 "Hg
* Reported Apr 20 5:00 PM — May 5 5:00 PM, Mildura, Weather by CustomWeather, © 2015

Note: Actual official high and low records may vary slightly from our data, if they occured in-between our weather recording intervals... More about our weather records

Advertising

Mildura weather history for previous 24 hours

 ConditionsComfort  
Time TempWeatherWind HumidityBarometerVisibility
5:00 PM
Tue, May 5
62 °FRefreshingly cool.17 mph34%29.86 "HgN/A
4:00 PM63 °FMild.16 mph32%29.84 "HgN/A
3:00 PM64 °FPartly sunny.21 mph36%29.82 "Hg1 mi
2:00 PM62 °FMild.17 mph45%29.81 "HgN/A
12:00 PM67 °FLow clouds.24 mph39%29.79 "Hg2 mi
11:00 AM64 °FMild.24 mph43%29.79 "HgN/A
10:00 AM63 °FMild.21 mph43%29.78 "HgN/A
9:00 AM61 °FSunny.20 mph47%29.77 "Hg19 mi
8:00 AM61 °FRefreshingly cool.16 mph46%29.75 "HgN/A
7:00 AM63 °FMild.22 mph44%29.72 "HgN/A
6:00 AM63 °FOvercast.10 mph47%29.71 "Hg5 mi
5:00 AM65 °FMild.15 mph40%29.72 "HgN/A
4:00 AM67 °FMild.13 mph49%29.69 "HgN/A
3:00 AM69 °FOvercast.12 mph36%29.67 "HgN/A
2:00 AM71 °FMild.16 mph34%29.67 "HgN/A
1:00 AM72 °FMild.17 mph32%29.69 "HgN/A
12:00 AM69 °FOvercast.12 mph34%29.72 "HgN/A
11:00 PM
Mon, May 4
69 °FMild.15 mph35%29.74 "HgN/A
10:00 PM68 °FMild.14 mph37%29.76 "HgN/A
9:00 PM67 °FMild.13 mph40%29.77 "HgN/A
8:00 PM68 °FMild.16 mph41%29.75 "HgN/A
7:00 PM69 °FMild.12 mph40%29.77 "HgN/A
6:00 PM70 °FMild.12 mph40%29.78 "HgN/A
Weather by CustomWeather, © 2015

See weather overviewHow to use our weather pages